Regional Weather Roundup
Issued by NWS

Home | Current Version | Previous Version | Text Only | Print | Product List | Glossary On
Versions: 1 2 3 4 5 6 7 8 9 10 11 12 13 14 15 16 17 18 19 20 21 22 23 24 25 26 27 28 29 30 31 32 33 34 35 36 37 38 39 40 41 42 43 44 45 46 47 48
000
ASUS44 KBMX 201210
RWRAL

ALABAMA REGIONAL WEATHER ROUNDUP
NATIONAL WEATHER SERVICE BIRMINGHAM AL
600 AM CST SAT DEC 20 2014

NOTE: "FAIR" INDICATES FEW OR NO CLOUDS BELOW 12,000 FEET
WITH NO SIGNIFICANT WEATHER AND/OR OBSTRUCTIONS TO VISIBILITY.

THE REMARK "TC" DENOTES TEMPERATURE IN DEGREES CELSIUS.

ALZ001>011-014-016>018-020-201300-
NORTH ALABAMA

CITY           SKY/WX    TMP DP  RH WIND       PRES   REMARKS
MUSCLE SHOALS  CLEAR     36  29  75 NE7       30.24R WCI  30
6HR MIN TEMP:  36; 6HR MAX TEMP:  39; 6HR PCP: TRACE;

HUNTSVILLE     CLOUDY    36  31  82 N6        30.21R WCI  31
6HR MIN TEMP:  36; 6HR MAX TEMP:  40; 6HR PCP: TRACE;

DECATUR        CLEAR     33  30  88 N5        30.23R WCI  29
6HR MIN TEMP:  33; 6HR MAX TEMP:  39; 6HR PCP: TRACE;

HALEYVILLE     FAIR      31  31 100 CALM      30.22R FOG
6HR MIN TEMP:  31; 6HR MAX TEMP:  35; 6HR PCP:  0.01;

GADSDEN        CLOUDY    39  37  93 CALM      30.20R
6HR MIN TEMP:  39; 6HR MAX TEMP:  41; 6HR PCP:  0.02;

$$

ALZ012-013-022-023-030>036-040>044-201300-
WEST CENTRAL ALABAMA

CITY           SKY/WX    TMP DP  RH WIND       PRES   REMARKS
TUSCALOOSA     CLOUDY    41  37  86 NE6       30.20S
6HR MIN TEMP:  41; 6HR MAX TEMP:  42; 6HR PCP: TRACE;

$$

ALZ015-024>027-033>036-040>044-201300-
CENTRAL ALABAMA

CITY           SKY/WX    TMP DP  RH WIND       PRES   REMARKS
BIRMINGHAM     CLOUDY    40  37  89 NW7       30.22R
6HR MIN TEMP:  40; 6HR MAX TEMP:  41; 6HR PCP: TRACE;

MONTGOMERY     CLOUDY    45  43  93 N7        30.19R
6HR MIN TEMP:  45; 6HR MAX TEMP:  46; 6HR PCP:  0.08;

SHELBY CO ARPT CLOUDY    42  40  92 VRB3      30.17S FOG
6HR MIN TEMP:  42; 6HR MAX TEMP:  43; 6HR PCP:  0.08;

MAXWELL AFB    CLOUDY    45  44  95 N5        30.18R
6HR MIN TEMP:  45; 6HR MAX TEMP:  45; 6HR PCP:  0.05;

GREENVILLE     CLOUDY    45  43  93 NE7       30.14R
6HR MIN TEMP:  45; 6HR MAX TEMP:  46; 6HR PCP:  0.28;

$$

ALZ019-021-028-029-037-038-045>048-201300-
EAST CENTRAL ALABAMA

CITY           SKY/WX    TMP DP  RH WIND       PRES   REMARKS
ANNISTON       CLOUDY    42  39  89 CALM      30.20R
6HR MIN TEMP:  41; 6HR MAX TEMP:  42; 6HR PCP:  0.11;

ALEXANDER CITY LGT RAIN  46  42  85 CALM      30.17R
6HR MIN TEMP:  43; 6HR MAX TEMP:  46; 6HR PCP:  0.10;

AUBURN         CLOUDY    41  37  87 NE5       30.17R
6HR MIN TEMP:  41; 6HR MAX TEMP:  43; 6HR PCP:  0.11;

$$

ALZ051>064-201300-
SOUTHWEST ALABAMA

CITY           SKY/WX    TMP DP  RH WIND       PRES   REMARKS
MOBILE         LGT RAIN  45  45 100 N13       30.13R
6HR MIN TEMP:  45; 6HR MAX TEMP:  46; 6HR PCP:  0.24;

BROOKLEY FIELD LGT RAIN  48  46  93 N13       30.15R
6HR MIN TEMP:  48; 6HR MAX TEMP:  50; 6HR PCP:  0.17;

EVERGREEN      CLOUDY    47  44  90 N6        30.15R
6HR MIN TEMP:  47; 6HR MAX TEMP:  48; 6HR PCP:  0.15;

$$

ALZ049-050-065>069-201300-
SOUTHEAST ALABAMA

CITY           SKY/WX    TMP DP  RH WIND       PRES   REMARKS
DOTHAN         CLOUDY    47  46  97 N9        30.18R
6HR MIN TEMP:  46; 6HR MAX TEMP:  47; 6HR PCP:  0.04;

OZARK          LGT RAIN  47  45  93 N7        30.15R
6HR MIN TEMP:  46; 6HR MAX TEMP:  47; 6HR PCP:  0.07;

TROY           LGT RAIN  47  45  93 N6        30.16R
6HR MIN TEMP:  46; 6HR MAX TEMP:  47; 6HR PCP:  0.41;

EUFAULA        LGT RAIN  48  46  93 CALM      30.15R FOG
6HR MIN TEMP:  47; 6HR MAX TEMP:  48; 6HR PCP:  0.30;

$$


USA.gov is the U.S. government's official web portal to all federal, state and local government web resources and services.